[[{"header":{"parameterUnit":"m.s-1","parameterCategory":1,"la1":30.2991,"la2":30.254,"lo1":-89.0895,"lo2":-89.0444,"dy":0.0017,"dx":0.0017,"nx":28,"ny":28,"refTime":"2023-07-30T03:00:00:Z","depth":0,"parameterNumber":2,"parameterNumberName":"U-component_of_WINDS"},"data":[0,0,0,0,0,0,0,0,0,0,0,0,0,0,0,0,0,0,0,0,0,0,0,0,0,0,0,0,0,0,0,0,0,0,0,0,0,0,0,0,0,0,0,0,0,0,0,0,0,0,0,0,0,0,0,0,0,0,2.7635,2.7635,0,2.7647,2.7647,2.7647,2.7564,2.7562,2.756,2.7557,2.7571,2.7573,2.7576,0,0,0,0,0,0,0,0,0,0,0,0,0,2.7541,2.7543,2.7635,2.7635,2.7635,2.7647,2.7647,2.7647,2.7565,2.7562,2.7559,2.7556,2.757,2.7573,2.7576,0,0,0,0,0,0,0,0,0,0,0,0,0,2.757,2.7543,2.7635,2.7595,2.7592,2.7647,2.7647,2.7648,2.7565,2.7562,2.7558,2.7555,2.7569,2.7573,2.7577,2.7671,0,0,2.7588,2.759,0,0,0,0,0,0,0,0,2.7569,2.7574,2.7601,2.7598,2.7594,2.7601,2.7619,2.7655,2.7566,2.7575,2.7557,2.7553,2.7584,2.7586,2.7596,2.7671,2.7672,2.7589,2.7591,2.7593,2.7594,0,0,0,0,0,0,0,2.7567,2.7573,2.764,2.7601,2.7597,2.7577,2.7578,2.7626,2.7599,2.7574,2.7568,2.7571,2.7581,2.7593,2.7596,2.7672,2.7588,2.7592,2.7594,2.7596,2.7826,2.783,0,0,0,0,0,0,2.757,2.7572,2.7639,2.764,2.7572,2.7582,2.7582,2.7602,2.7598,2.7594,2.7574,2.7567,2.7588,2.7592,2.7596,2.7707,2.7593,2.7596,2.7598,2.7823,2.7827,2.7831,0,0,0,0,0,0,2.7568,2.7577,2.7639,2.7604,2.7611,2.7587,2.761,2.7604,2.7616,2.7598,2.7593,2.759,2.7585,2.7591,2.7653,2.7706,2.7598,2.7601,2.7818,2.7824,2.7829,2.7929,0,0,0,0,0,0,2.7566,2.7576,2.7612,2.7606,2.7613,2.7695,2.7613,2.7607,2.7622,2.7613,2.7612,2.7609,2.7583,2.7648,2.7657,2.7709,2.7604,2.7813,2.7821,2.7828,2.7921,2.7937,2.7951,0,0,0,0,0,2.7563,2.7639,2.7614,2.7622,2.7656,2.7698,2.7703,2.7671,2.7627,2.7662,2.7651,2.7609,2.7699,2.7655,2.7664,2.7719,2.781,2.7819,2.7827,2.7914,2.7934,2.7951,0,0,0,0,0,0,2.7651,2.7637,2.7609,2.7686,2.7694,2.7684,2.7728,2.7693,2.7714,2.7705,2.7666,2.7666,2.7736,2.7733,2.7684,2.781,2.7747,2.7758,2.7809,2.7828,2.7843,2.7842,2.7607,0,0,0,0,0,2.768,2.7715,2.7701,2.777,2.7776,2.7752,2.7769,2.7744,2.7751,2.7754,2.7747,2.7756,2.7786,2.7807,2.7834,2.792,2.7919,2.7962,2.7978,2.799,2.8,2.8047,2.8066,2.786,2.786,2.786,0,0,2.7739,2.7736,2.7761,2.7788,2.7791,2.7829,2.7755,2.7798,2.7826,2.776,2.7819,2.7815,2.7822,2.7897,2.793,2.7897,2.8057,2.8001,2.8012,2.8015,2.8057,2.8077,2.8094,2.7866,2.7865,2.7864,0,0,2.7867,2.7867,2.7925,2.7931,2.7937,2.7921,2.7935,2.7931,2.7925,2.7984,2.7936,2.7969,2.8022,2.8029,2.804,2.8172,2.8134,2.8182,2.8262,2.8308,2.8324,2.8338,2.8386,2.8403,2.8192,2.8192,2.8192,0,2.794,2.7994,2.796,2.8006,2.802,2.7963,2.8022,2.8029,2.8044,2.8055,2.8019,2.8085,2.8085,2.8162,2.8194,2.8204,2.822,2.8181,2.8324,2.8338,2.8351,2.8396,2.8414,2.8198,2.8197,2.8196,2.8196,0,2.8084,2.8123,2.8169,2.8186,2.8205,2.8258,2.8231,2.8255,2.8229,2.8217,2.8278,2.8277,2.8303,2.8319,2.8294,2.8393,2.8372,2.8331,2.8266,2.8377,2.8419,2.8436,2.8206,2.8204,2.8202,2.8201,0,0,2.8267,2.8264,2.8282,2.8289,2.8293,2.8322,2.8373,2.8399,2.842,2.8433,2.8475,2.8521,2.8483,2.8496,2.8471,2.8511,2.8617,2.8465,2.8464,2.8494,2.8727,2.8758,2.8779,2.8592,2.8595,2.8598,2.8726,0,2.8392,2.8478,2.8449,2.8536,2.8573,2.852,2.8564,2.8571,2.8562,2.8591,2.8581,2.8615,2.8561,2.8569,2.8606,2.8596,2.8663,2.8587,2.8631,2.8633,2.8631,2.88,2.8833,2.8955,2.8742,2.8745,2.8747,0,2.8549,2.8569,2.866,2.8658,2.8672,2.8713,2.8735,2.8763,2.8771,2.8761,2.8776,2.8743,2.8794,2.8729,2.8798,2.8747,2.8763,2.8762,2.8766,2.8769,2.8697,2.8808,2.8992,2.9011,2.8772,2.877,2.8768,0,2.8674,2.8723,2.8785,2.8792,2.8792,2.8821,2.8823,2.8827,2.8845,2.8864,2.8875,2.89,2.8914,2.8935,2.891,2.8865,2.8983,2.8916,2.8977,2.8978,2.9004,2.9003,2.9194,2.9015,2.9015,2.9014,2.9014,0,2.8817,2.8875,2.8841,2.8879,2.8943,2.8909,2.8974,2.8969,2.8973,2.901,2.8965,2.9001,2.8966,2.8998,2.8979,2.904,2.9046,2.904,2.9035,2.9044,2.9045,2.9055,2.9046,2.9019,2.9018,2.9017,2.9016,0,2.8968,2.8947,2.901,2.9005,2.9005,2.9053,2.9048,2.9083,2.9071,2.9118,2.9127,2.9107,2.9143,2.9121,2.9157,2.9144,2.9224,2.9206,2.9221,2.9217,2.9279,2.9274,2.9483,2.9509,2.9313,2.9315,2.9316,0,2.906,2.9104,2.9104,2.9125,2.9129,2.9164,2.9182,2.9151,2.9171,2.9184,2.9218,2.925,2.9274,2.9334,2.9323,2.9351,2.9334,2.9406,2.9338,2.9347,2.9336,2.9334,2.9339,2.942,2.9422,2.9424,2.9425,0,2.9227,2.9215,2.9243,2.9268,2.929,2.9308,2.9322,2.9342,2.9311,2.9337,2.9373,2.9392,2.9429,2.9462,2.9486,2.9487,2.9452,2.9447,2.9462,2.9473,2.948,2.9478,2.9259,2.9442,2.944,2.9439,2.9438,2.9438,2.9352,2.9389,2.9395,2.9427,2.9435,2.9449,2.9482,2.9474,2.9504,2.9532,2.9512,2.9555,2.9563,2.9591,2.9597,2.9631,2.9602,2.9624,2.963,2.9636,2.9645,2.9475,2.9635,2.9634,2.9634,2.9633,2.9633,0,2.9517,2.9519,2.9549,2.957,2.9597,2.9561,2.9575,2.9599,2.9638,2.9648,2.9673,2.9715,2.9747,2.9739,2.9768,2.9796,2.9781,2.9805,2.9803,2.9804,2.9669,2.9653,2.9817,2.9817,2.9817,2.9817,2.9817,2.9817,2.9606,2.9667,2.9656,2.972,2.9721,2.9763,2.9774,2.9788,2.9796,2.9845,2.9871,2.9866,2.9869,2.9898,2.9926,2.9923,2.9936,2.9966,2.9957,2.9832,2.9813,2.9796,2.9781,2.9969,2.9969,3.0089,3.0091,3.0091]},{"header":{"parameterUnit":"m.s-1","parameterCategory":1,"la1":30.2991,"la2":30.254,"lo1":-89.0895,"lo2":-89.0444,"dy":0.0017,"dx":0.0017,"nx":28,"ny":28,"refTime":"2023-07-30T03:00:00:Z","depth":0,"parameterNumber":3,"parameterNumberName":"V-component_of_WINDS"},"data":[0,0,0,0,0,0,0,0,0,0,0,0,0,0,0,0,0,0,0,0,0,0,0,0,0,0,0,0,0,0,0,0,0,0,0,0,0,0,0,0,0,0,0,0,0,0,0,0,0,0,0,0,0,0,0,0,0,0,-2.132,-2.1321,0,-2.1393,-2.1394,-2.1395,-2.1378,-2.1377,-2.1376,-2.1374,-2.1449,-2.1453,-2.1456,0,0,0,0,0,0,0,0,0,0,0,0,0,-2.1167,-2.117,-2.132,-2.1321,-2.1322,-2.1393,-2.1394,-2.1395,-2.1379,-2.1377,-2.1375,-2.1374,-2.1448,-2.1452,-2.1456,0,0,0,0,0,0,0,0,0,0,0,0,0,-2.1236,-2.1171,-2.132,-2.1322,-2.1323,-2.1393,-2.1394,-2.1396,-2.1379,-2.1377,-2.1375,-2.1373,-2.1447,-2.1452,-2.1457,-2.1529,0,0,-2.1472,-2.1474,0,0,0,0,0,0,0,0,-2.1232,-2.1242,-2.1321,-2.1322,-2.1323,-2.1375,-2.1368,-2.144,-2.1379,-2.1358,-2.1374,-2.1372,-2.1426,-2.1433,-2.1451,-2.1532,-2.1536,-2.1472,-2.1475,-2.1477,-2.1479,0,0,0,0,0,0,0,-2.1227,-2.1238,-2.1349,-2.1322,-2.1324,-2.132,-2.1327,-2.1381,-2.1403,-2.1359,-2.1358,-2.1367,-2.1426,-2.1446,-2.1453,-2.1537,-2.1472,-2.1476,-2.1479,-2.1481,-2.1682,-2.1684,0,0,0,0,0,0,-2.1221,-2.1235,-2.1347,-2.1351,-2.1272,-2.1324,-2.1333,-2.136,-2.1402,-2.1407,-2.1369,-2.1366,-2.1439,-2.1447,-2.1455,-2.1543,-2.1477,-2.1482,-2.1485,-2.168,-2.1683,-2.1685,0,0,0,0,0,0,-2.1218,-2.1232,-2.1344,-2.1293,-2.1307,-2.1329,-2.136,-2.1363,-2.1383,-2.1409,-2.1413,-2.1385,-2.1438,-2.1448,-2.1511,-2.1545,-2.1484,-2.1489,-2.1677,-2.1681,-2.1684,-2.1719,0,0,0,0,0,0,-2.1214,-2.1231,-2.1258,-2.1294,-2.131,-2.1398,-2.1362,-2.1366,-2.1391,-2.1388,-2.1426,-2.143,-2.1437,-2.1504,-2.1516,-2.1551,-2.1493,-2.1674,-2.1679,-2.1683,-2.1715,-2.1723,-2.1731,0,0,0,0,0,-2.1209,-2.1265,-2.126,-2.1273,-2.1344,-2.14,-2.1409,-2.1416,-2.1394,-2.1422,-2.1439,-2.1429,-2.154,-2.151,-2.1524,-2.1561,-2.1672,-2.1677,-2.1682,-2.1711,-2.1722,-2.173,0,0,0,0,0,0,-2.1233,-2.127,-2.1264,-2.1333,-2.1364,-2.1397,-2.1433,-2.1427,-2.1464,-2.146,-2.1467,-2.1475,-2.1539,-2.1556,-2.1523,-2.1634,-2.1603,-2.1611,-2.162,-2.163,-2.1638,-2.1632,-2.1497,0,0,0,0,0,-2.1246,-2.1288,-2.1318,-2.1377,-2.1392,-2.141,-2.1435,-2.1437,-2.1469,-2.1482,-2.1504,-2.1535,-2.1577,-2.1604,-2.1645,-2.1717,-2.1726,-2.175,-2.1758,-2.1764,-2.1771,-2.1812,-2.1823,-2.1703,-2.1703,-2.1703,0,0,-2.1275,-2.13,-2.1326,-2.1382,-2.1406,-2.145,-2.1421,-2.1468,-2.1501,-2.1489,-2.155,-2.1567,-2.1602,-2.1671,-2.1702,-2.1687,-2.1806,-2.1771,-2.1776,-2.1779,-2.1818,-2.183,-2.184,-2.1706,-2.1706,-2.1705,0,0,-2.1348,-2.1372,-2.1423,-2.1448,-2.1484,-2.1496,-2.1508,-2.1543,-2.1554,-2.1615,-2.1607,-2.1646,-2.1718,-2.1744,-2.1767,-2.1851,-2.1843,-2.1864,-2.1905,-2.1944,-2.1954,-2.1962,-2.1993,-2.2004,-2.1871,-2.1871,-2.1871,0,-2.1379,-2.1444,-2.145,-2.1499,-2.1524,-2.1516,-2.1568,-2.1592,-2.164,-2.1657,-2.164,-2.1731,-2.1754,-2.1829,-2.1849,-2.1868,-2.1883,-2.186,-2.1952,-2.1961,-2.1969,-2.1998,-2.2009,-2.1874,-2.1873,-2.1873,-2.1873,0,-2.148,-2.1526,-2.1563,-2.161,-2.1639,-2.1689,-2.1704,-2.1733,-2.1733,-2.1747,-2.1809,-2.1837,-2.1883,-2.1901,-2.1901,-2.1976,-2.1965,-2.195,-2.1919,-2.1982,-2.201,-2.2021,-2.1877,-2.1876,-2.1875,-2.1875,0,0,-2.1571,-2.1621,-2.1634,-2.1656,-2.1696,-2.1731,-2.1781,-2.1826,-2.1851,-2.1885,-2.1928,-2.1989,-2.1976,-2.2001,-2.2005,-2.2039,-2.2105,-2.202,-2.2021,-2.2035,-2.219,-2.2201,-2.2214,-2.21,-2.2102,-2.2104,-2.2187,0,-2.1648,-2.1737,-2.1744,-2.1823,-2.1866,-2.1859,-2.1903,-2.1932,-2.1946,-2.1985,-2.2,-2.2044,-2.2023,-2.2038,-2.2072,-2.209,-2.2137,-2.2084,-2.214,-2.2142,-2.2132,-2.2228,-2.224,-2.2317,-2.2198,-2.2199,-2.2201,0,-2.1751,-2.1787,-2.1871,-2.1906,-2.1924,-2.1963,-2.2005,-2.2042,-2.2076,-2.2084,-2.2113,-2.2112,-2.2164,-2.2131,-2.2204,-2.2168,-2.2191,-2.2204,-2.2207,-2.2212,-2.2175,-2.2236,-2.2341,-2.2353,-2.2218,-2.2216,-2.2215,0,-2.1809,-2.1879,-2.1938,-2.1957,-2.1999,-2.2027,-2.2045,-2.2077,-2.2104,-2.2141,-2.2158,-2.2201,-2.2225,-2.2258,-2.2269,-2.2244,-2.2341,-2.2309,-2.2349,-2.2349,-2.237,-2.2368,-2.248,-2.2385,-2.2385,-2.2384,-2.2384,0,-2.1894,-2.1946,-2.1965,-2.2002,-2.2059,-2.2068,-2.2125,-2.2142,-2.2171,-2.2211,-2.2207,-2.2245,-2.2257,-2.2297,-2.2306,-2.2365,-2.2375,-2.2384,-2.2385,-2.2384,-2.2383,-2.2399,-2.2394,-2.2387,-2.2387,-2.2386,-2.2386,0,-2.1969,-2.1984,-2.2048,-2.2083,-2.2093,-2.2134,-2.2164,-2.2199,-2.2213,-2.2264,-2.2276,-2.2298,-2.2345,-2.2359,-2.2416,-2.2422,-2.2491,-2.2488,-2.248,-2.248,-2.252,-2.2516,-2.2646,-2.2663,-2.2556,-2.2557,-2.2558,0,-2.2023,-2.2062,-2.2101,-2.2128,-2.2148,-2.2191,-2.2218,-2.2228,-2.2257,-2.2299,-2.233,-2.2376,-2.2414,-2.249,-2.2511,-2.2554,-2.2552,-2.2595,-2.2559,-2.2556,-2.2553,-2.2551,-2.2555,-2.2602,-2.2603,-2.2604,-2.2604,0,-2.2117,-2.2122,-2.2162,-2.2205,-2.2237,-2.2271,-2.2304,-2.2326,-2.2341,-2.2374,-2.2422,-2.2451,-2.2509,-2.2556,-2.26,-2.262,-2.2615,-2.2616,-2.2627,-2.2626,-2.262,-2.2624,-2.2498,-2.2612,-2.2612,-2.2611,-2.2611,-2.261,-2.2183,-2.2218,-2.2251,-2.2296,-2.2321,-2.2352,-2.2387,-2.2406,-2.2446,-2.2494,-2.2498,-2.255,-2.2583,-2.2643,-2.2665,-2.2706,-2.2694,-2.2711,-2.2715,-2.2719,-2.2722,-2.2614,-2.2714,-2.2714,-2.2714,-2.2714,-2.2713,0,-2.2277,-2.2298,-2.2339,-2.2385,-2.242,-2.2412,-2.2448,-2.2479,-2.2525,-2.2556,-2.2594,-2.2649,-2.2695,-2.272,-2.2765,-2.2793,-2.2792,-2.2805,-2.2803,-2.2808,-2.2731,-2.2716,-2.2805,-2.2805,-2.2805,-2.2805,-2.2805,-2.2805,-2.233,-2.2389,-2.2399,-2.2471,-2.2492,-2.2543,-2.2564,-2.2593,-2.2618,-2.2681,-2.2718,-2.2734,-2.2764,-2.2811,-2.2853,-2.2859,-2.2876,-2.289,-2.2895,-2.2822,-2.2813,-2.2804,-2.2791,-2.2894,-2.2894,-2.2969,-2.297,-2.297]}]]